QPF
0.03 0.04 0.03 0.02 0.02 0.02 0.02 0.02 0.03 0.03 0.04 0.05 0.05 0.05 0.06 0.06 0.06 0.05 0.03 0.04 0.03 0.03 0.03 0.03 0.03 0.03 0.02 0.02 0.02 0.02 0.02 0.02 0.02 0.02 0.02 0.02 0.02 0.03 0.03 0.03 0.03 0.02 0.02
0.02 0.03 0.03 0.03 0.02 0.02 0.02 0.03 0.03 0.04 0.04 0.04 0.05 0.05 0.05 0.05 0.05 0.05 0.04 0.04 0.04 0.03 0.03 0.04 0.04 0.04 0.03 0.02 0.02 0.02 0.01 0.01 0.01 0.02 0.02 0.02 0.02 0.02 0.02 0.03 0.03 0.03 0.02
0.02 0.02 0.03 0.03 0.03 0.03 0.02 0.02 0.03 0.03 0.03 0.03 0.04 0.04 0.04 0.04 0.05 0.05 0.05 0.05 0.05 0.04 0.04 0.04 0.04 0.04 0.04 0.03 0.02 0.02 0.02 0.02 0.02 0.02 0.01 0.01 0.02 0.02 0.02 0.02 0.03 0.03 0.02
0.01 0.02 0.02 0.03 0.03 0.03 0.02 0.02 0.03 0.03 0.03 0.03 0.03 0.03 0.03 0.03 0.04 0.04 0.04 0.04 0.05 0.05 0.04 0.04 0.04 0.03 0.03 0.03 0.02 0.02 0.02 0.02 0.02 0.02 0.01 0.01 0.02 0.02 0.02 0.02 0.03 0.03 0.03
0.02 0.02 0.02 0.02 0.02 0.02 0.02 0.02 0.02 0.02 0.02 0.03 0.03 0.03 0.03 0.03 0.03 0.03 0.03 0.04 0.04 0.04 0.04 0.03 0.03 0.03 0.02 0.02 0.03 0.03 0.03 0.03 0.02 0.02 0.01 0.01 0.01 0.02 0.02 0.02 0.02 0.02 0.02
0.02 0.02 0.02 0.02 0.02 0.02 0.02 0.02 0.03 0.03 0.02 0.02 0.03 0.03 0.04 0.04 0.04 0.04 0.04 0.04 0.04 0.03 0.03 0.02 0.02 0.02 0.02 0.02 0.02 0.03 0.04 0.04 0.04 0.03 0.02 0.02 0.01 0.02 0.02 0.02 0.02 0.02 0.02
0.03 0.02 0.02 0.02 0.02 0.03 0.03 0.03 0.03 0.04 0.04 0.04 0.04 0.04 0.04 0.04 0.05 0.05 0.04 0.05 0.04 0.03 0.02 0.02 0.02 0.01 0.01 0.01 0.01 0.02 0.02 0.03 0.03 0.03 0.03 0.02 0.02 0.02 0.03 0.04 0.03 0.03 0.02
0.03 0.03 0.03 0.03 0.03 0.03 0.03 0.03 0.03 0.03 0.03 0.04 0.04 0.04 0.04 0.04 0.05 0.06 0.06 0.05 0.03 0.03 0.02 0.02 0.01 0.01 0.01 0.01 0.01 0.01 0.01 0.01 0.01 0.02 0.01 0.01 0.01 0.02 0.03 0.04 0.04 0.04 0.03
0.03 0.03 0.03 0.03 0.03 0.03 0.03 0.03 0.03 0.03 0.03 0.03 0.03 0.03 0.04 0.04 0.06 0.06 0.05 0.05 0.04 0.02 0.02 0.01 0.01 0.01 0.01 0.02 0.02 0.02 0.01 0.01 0.01 0.01 0.02 0.02 0.02 0.02 0.03 0.04 0.05 0.04 0.03
0.03 0.03 0.03 0.03 0.03 0.03 0.03 0.03 0.03 0.03 0.03 0.03 0.04 0.03 0.03 0.04 0.05 0.05 0.05 0.04 0.03 0.02 0.02 0.02 0.01 0.01 0.01 0.02 0.02 0.02 0.01 0.01 0.01 0.01 0.02 0.03 0.03 0.03 0.03 0.03 0.04 0.04 0.03
0.02 0.02 0.02 0.02 0.03 0.03 0.03 0.03 0.03 0.03 0.03 0.04 0.04 0.04 0.04 0.04 0.04 0.05 0.04 0.03 0.03 0.03 0.02 0.02 0.01 0.01 0.01 0.02 0.02 0.02 0.02 0.02 0.02 0.02 0.02 0.02 0.02 0.03 0.03 0.03 0.03 0.03 0.03
0.02 0.02 0.02 0.02 0.02 0.03 0.03 0.03 0.04 0.04 0.04 0.04 0.04 0.04 0.04 0.04 0.04 0.05 0.04 0.03 0.02 0.03 0.02 0.02 0.02 0.02 0.02 0.02 0.02 0.02 0.02 0.03 0.03 0.03 0.03 0.02 0.02 0.03 0.03 0.03 0.03 0.04 0.04
0.02 0.02 0.02 0.02 0.02 0.03 0.03 0.03 0.03 0.03 0.03 0.03 0.03 0.03 0.03 0.03 0.04 0.04 0.04 0.03 0.03 0.02 0.02 0.02 0.02 0.03 0.02 0.02 0.02 0.02 0.02 0.02 0.03 0.03 0.03 0.03 0.03 0.03 0.03 0.04 0.04 0.04 0.04
0.02 0.02 0.02 0.02 0.03 0.03 0.03 0.03 0.02 0.02 0.02 0.02 0.02 0.02 0.02 0.02 0.03 0.03 0.03 0.03 0.03 0.02 0.02 0.02 0.03 0.03 0.03 0.02 0.02 0.02 0.02 0.02 0.02 0.03 0.02 0.02 0.02 0.03 0.03 0.03 0.03 0.03 0.03
0.02 0.02 0.02 0.02 0.03 0.03 0.03 0.03 0.02 0.01 0.01 0.02 0.02 0.02 0.02 0.02 0.02 0.02 0.03 0.03 0.03 0.03 0.03 0.03 0.04 0.03 0.03 0.03 0.03 0.02 0.02 0.02 0.02 0.02 0.02 0.02 0.02 0.02 0.02 0.03 0.03 0.03 0.02
0.02 0.02 0.02 0.03 0.03 0.02 0.03 0.03 0.03 0.02 0.02 0.02 0.03 0.03 0.02 0.02 0.03 0.03 0.04 0.03 0.03 0.03 0.03 0.04 0.04 0.03 0.02 0.02 0.02 0.02 0.02 0.02 0.02 0.02 0.03 0.03 0.03 0.03 0.03 0.03 0.03 0.02 0.02
0.01 0.02 0.02 0.02 0.02 0.02 0.02 0.02 0.03 0.03 0.02 0.02 0.02 0.02 0.02 0.02 0.03 0.03 0.04 0.03 0.03 0.03 0.04 0.02 0.02 0.02 0.02 0.02 0.02 0.02 0.02 0.02 0.02 0.02 0.02 0.03 0.03 0.03 0.02 0.02 0.02 0.02 0.01
0.02 0.02 0.02 0.02 0.02 0.02 0.02 0.02 0.02 0.02 0.02 0.02 0.02 0.02 0.02 0.02 0.02 0.03 0.03 0.04 0.04 0.04 0.03 0.02 0.02 0.02 0.02 0.02 0.02 0.01 0.01 0.01 0.01 0.02 0.02 0.02 0.02 0.02 0.02 0.01 0.01 0.01 0.01
0.02 0.02 0.02 0.02 0.02 0.03 0.03 0.02 0.02 0.02 0.02 0.01 0.02 0.02 0.02 0.03 0.03 0.04 0.04 0.04 0.03 0.02 0.02 0.02 0.02 0.01 0.01 0.01 0.01 0.01 0.01 0.01 0.01 0.02 0.02 0.02 0.02 0.01 0.01 0.01 0.01 0.01 0.01
0.02 0.02 0.02 0.02 0.02 0.03 0.03 0.03 0.02 0.02 0.02 0.02 0.02 0.01 0.02 0.03 0.04 0.04 0.04 0.03 0.02 0.02 0.02 0.02 0.02 0.01 0.01 0.01 0.01 0.01 0.01 0.01 0.01 0.01 0.02 0.02 0.02 0.01 0.01 0.01 0.01 0.01 0.01
0.02 0.02 0.02 0.02 0.02 0.02 0.02 0.02 0.02 0.02 0.02 0.02 0.02 0.02 0.02 0.03 0.03 0.03 0.03 0.02 0.02 0.02 0.02 0.02 0.01 0.01 0.01 0.01 0.01 0.01 0.01 0.01 0.01 0.01 0.01 0.01 0.01 0.01 0.01 0.01 0.01 0.01 0.01
0.02 0.02 0.02 0.02 0.02 0.02 0.02 0.02 0.02 0.02 0.02 0.02 0.02 0.02 0.02 0.03 0.02 0.02 0.02 0.02 0.02 0.02 0.02 0.02 0.01 0.01 0.01 0.01 0.01 0.02 0.01 0.01 0.01 0.01 0.01 0.01 0.01 0.01 0.01 0.01 0.01 0.01 0.01
0.02 0.02 0.02 0.02 0.02 0.02 0.02 0.02 0.02 0.02 0.02 0.02 0.02 0.02 0.02 0.02 0.02 0.02 0.02 0.02 0.02 0.02 0.02 0.02 0.02 0.01 0.01 0.01 0.01 0.01 0.01 0.01 0.01 0.01 0.01 0.01 0.01 0.01 0.01 0.01 0.01 0.01 0.01
0.01 0.02 0.02 0.02 0.02 0.02 0.01 0.01 0.01 0.02 0.02 0.02 0.02 0.02 0.02 0.02 0.02 0.02 0.02 0.02 0.02 0.02 0.02 0.02 0.02 0.02 0.01 0.01 0.02 0.02 0.01 0.01 0.01 0.02 0.02 0.02 0.02 0.02 0.02 0.02 0.01 0.01 0.01
0.01 0.01 0.01 0.01 0.01 0.01 0.01 0.01 0.01 0.01 0.01 0.02 0.02 0.02 0.02 0.02 0.02 0.02 0.02 0.02 0.02 0.02 0.02 0.02 0.02 0.02 0.01 0.01 0.02 0.02 0.02 0.02 0.02 0.02 0.02 0.02 0.02 0.02 0.02 0.02 0.01 0.01 0.01
0.01 0.01 0.01 0.01 0.01 0.01 0.01 0.01 0.01 0.01 0.01 0.01 0.01 0.01 0.02 0.02 0.02 0.02 0.02 0.02 0.02 0.02 0.02 0.02 0.02 0.02 0.02 0.02 0.01 0.02 0.02 0.02 0.02 0.02 0.03 0.03 0.03 0.02 0.02 0.02 0.02 0.01 0.01
MSLP
1037.04 1036.14 1035.23 1034.34 1033.52 1032.80 1032.18 1031.65 1031.19 1030.77 1030.37 1029.97 1029.55 1029.12 1028.67 1028.24 1027.82 1027.45 1027.13 1026.87 1026.69 1026.56 1026.48 1026.44 1026.42 1026.39 1026.35 1026.27 1026.17 1026.02 1025.84 1025.63 1025.40 1025.13 1024.84 1024.52 1024.15 1023.74 1023.28 1022.77 1022.22 1021.63 1021.02
1036.86 1035.93 1035.01 1034.15 1033.38 1032.72 1032.16 1031.69 1031.28 1030.90 1030.50 1030.08 1029.61 1029.11 1028.58 1028.05 1027.55 1027.09 1026.69 1026.38 1026.14 1025.97 1025.85 1025.76 1025.68 1025.61 1025.52 1025.41 1025.28 1025.13 1024.98 1024.82 1024.64 1024.45 1024.24 1023.98 1023.67 1023.30 1022.86 1022.35 1021.78 1021.17 1020.53
1036.61 1035.68 1034.77 1033.94 1033.21 1032.60 1032.10 1031.67 1031.28 1030.90 1030.49 1030.02 1029.50 1028.92 1028.31 1027.70 1027.12 1026.60 1026.16 1025.80 1025.53 1025.33 1025.17 1025.05 1024.93 1024.81 1024.67 1024.52 1024.36 1024.21 1024.06 1023.92 1023.79 1023.65 1023.50 1023.30 1023.05 1022.72 1022.31 1021.81 1021.25 1020.64 1020.00
1036.42 1035.48 1034.59 1033.79 1033.10 1032.53 1032.04 1031.62 1031.22 1030.81 1030.35 1029.82 1029.22 1028.56 1027.88 1027.21 1026.58 1026.02 1025.56 1025.19 1024.91 1024.69 1024.53 1024.38 1024.23 1024.07 1023.89 1023.70 1023.51 1023.32 1023.16 1023.02 1022.90 1022.79 1022.67 1022.52 1022.31 1022.02 1021.65 1021.20 1020.68 1020.10 1019.49
1036.33 1035.41 1034.54 1033.77 1033.11 1032.54 1032.05 1031.60 1031.15 1030.67 1030.13 1029.51 1028.83 1028.10 1027.35 1026.63 1025.97 1025.41 1024.94 1024.59 1024.32 1024.12 1023.96 1023.81 1023.65 1023.46 1023.24 1023.01 1022.77 1022.55 1022.35 1022.19 1022.06 1021.95 1021.84 1021.70 1021.52 1021.28 1020.96 1020.57 1020.10 1019.59 1019.04
1036.40 1035.49 1034.66 1033.91 1033.25 1032.67 1032.14 1031.64 1031.11 1030.54 1029.90 1029.19 1028.42 1027.61 1026.82 1026.07 1025.40 1024.84 1024.39 1024.06 1023.83 1023.65 1023.51 1023.37 1023.20 1022.99 1022.75 1022.48 1022.20 1021.93 1021.69 1021.49 1021.32 1021.18 1021.06 1020.92 1020.75 1020.54 1020.27 1019.95 1019.56 1019.13 1018.66
1036.58 1035.72 1034.92 1034.19 1033.53 1032.92 1032.34 1031.76 1031.14 1030.47 1029.73 1028.93 1028.08 1027.22 1026.38 1025.61 1024.94 1024.39 1023.97 1023.67 1023.46 1023.32 1023.19 1023.06 1022.89 1022.68 1022.42 1022.12 1021.81 1021.50 1021.21 1020.95 1020.74 1020.55 1020.39 1020.24 1020.07 1019.88 1019.65 1019.39 1019.08 1018.73 1018.35
1036.84 1036.03 1035.26 1034.55 1033.88 1033.24 1032.61 1031.96 1031.26 1030.51 1029.69 1028.81 1027.90 1027.00 1026.13 1025.35 1024.69 1024.15 1023.74 1023.45 1023.26 1023.13 1023.01 1022.89 1022.72 1022.50 1022.23 1021.92 1021.58 1021.24 1020.91 1020.61 1020.34 1020.11 1019.90 1019.71 1019.52 1019.34 1019.13 1018.91 1018.67 1018.40 1018.09
1037.10 1036.34 1035.62 1034.92 1034.25 1033.60 1032.93 1032.23 1031.47 1030.66 1029.79 1028.87 1027.93 1027.00 1026.13 1025.34 1024.67 1024.13 1023.72 1023.43 1023.23 1023.09 1022.97 1022.84 1022.67 1022.45 1022.18 1021.86 1021.52 1021.16 1020.80 1020.46 1020.15 1019.86 1019.60 1019.37 1019.15 1018.94 1018.74 1018.54 1018.33 1018.11 1017.85
1037.33 1036.62 1035.93 1035.26 1034.60 1033.93 1033.25 1032.52 1031.75 1030.92 1030.03 1029.10 1028.16 1027.24 1026.37 1025.58 1024.90 1024.35 1023.92 1023.60 1023.37 1023.20 1023.05 1022.90 1022.72 1022.51 1022.25 1021.94 1021.60 1021.24 1020.88 1020.51 1020.16 1019.83 1019.51 1019.22 1018.95 1018.71 1018.48 1018.27 1018.06 1017.85 1017.62
1037.50 1036.83 1036.17 1035.52 1034.87 1034.21 1033.53 1032.82 1032.05 1031.24 1030.37 1029.47 1028.56 1027.66 1026.80 1026.02 1025.33 1024.76 1024.29 1023.93 1023.65 1023.43 1023.25 1023.07 1022.88 1022.67 1022.42 1022.14 1021.82 1021.48 1021.11 1020.74 1020.37 1019.99 1019.62 1019.28 1018.95 1018.65 1018.37 1018.12 1017.89 1017.65 1017.40
1037.62 1036.98 1036.34 1035.71 1035.07 1034.43 1033.78 1033.09 1032.37 1031.59 1030.78 1029.93 1029.06 1028.20 1027.37 1026.60 1025.90 1025.30 1024.79 1024.37 1024.04 1023.77 1023.54 1023.34 1023.15 1022.94 1022.71 1022.46 1022.17 1021.85 1021.50 1021.13 1020.74 1020.34 1019.93 1019.52 1019.13 1018.77 1018.42 1018.11 1017.82 1017.53 1017.24
1037.72 1037.09 1036.46 1035.84 1035.22 1034.61 1033.98 1033.34 1032.66 1031.95 1031.19 1030.41 1029.60 1028.78 1027.99 1027.23 1026.53 1025.90 1025.35 1024.89 1024.50 1024.19 1023.93 1023.71 1023.51 1023.31 1023.10 1022.88 1022.62 1022.33 1022.01 1021.65 1021.25 1020.83 1020.38 1019.93 1019.49 1019.06 1018.65 1018.26 1017.90 1017.54 1017.17
1037.82 1037.20 1036.58 1035.96 1035.36 1034.76 1034.17 1033.56 1032.93 1032.27 1031.58 1030.85 1030.10 1029.33 1028.57 1027.82 1027.12 1026.48 1025.91 1025.42 1025.00 1024.66 1024.38 1024.14 1023.94 1023.76 1023.57 1023.38 1023.15 1022.89 1022.59 1022.24 1021.85 1021.41 1020.95 1020.47 1019.98 1019.50 1019.03 1018.58 1018.15 1017.71 1017.26
1037.95 1037.33 1036.71 1036.10 1035.51 1034.93 1034.35 1033.77 1033.18 1032.57 1031.92 1031.23 1030.52 1029.79 1029.05 1028.33 1027.64 1027.00 1026.42 1025.92 1025.49 1025.14 1024.85 1024.62 1024.42 1024.25 1024.09 1023.91 1023.71 1023.47 1023.18 1022.85 1022.46 1022.04 1021.57 1021.08 1020.57 1020.06 1019.56 1019.06 1018.56 1018.06 1017.53
1038.10 1037.49 1036.88 1036.28 1035.69 1035.12 1034.56 1033.99 1033.42 1032.82 1032.19 1031.52 1030.83 1030.12 1029.41 1028.70 1028.03 1027.40 1026.84 1026.35 1025.93 1025.59 1025.31 1025.08 1024.90 1024.73 1024.58 1024.41 1024.22 1023.99 1023.71 1023.39 1023.02 1022.61 1022.16 1021.69 1021.19 1020.68 1020.17 1019.65 1019.11 1018.56 1017.96
1038.22 1037.64 1037.05 1036.47 1035.90 1035.34 1034.78 1034.22 1033.64 1033.03 1032.40 1031.73 1031.04 1030.33 1029.62 1028.94 1028.28 1027.68 1027.15 1026.68 1026.29 1025.97 1025.71 1025.49 1025.32 1025.15 1024.99 1024.82 1024.62 1024.39 1024.12 1023.81 1023.46 1023.07 1022.66 1022.21 1021.76 1021.28 1020.78 1020.27 1019.72 1019.13 1018.49
1038.28 1037.74 1037.20 1036.65 1036.11 1035.56 1035.01 1034.43 1033.83 1033.20 1032.54 1031.85 1031.14 1030.42 1029.72 1029.04 1028.41 1027.84 1027.34 1026.91 1026.55 1026.26 1026.01 1025.81 1025.63 1025.46 1025.28 1025.09 1024.87 1024.62 1024.34 1024.04 1023.71 1023.36 1022.99 1022.60 1022.20 1021.77 1021.32 1020.84 1020.30 1019.70 1019.02
1038.21 1037.74 1037.26 1036.77 1036.26 1035.74 1035.18 1034.60 1033.97 1033.31 1032.61 1031.88 1031.15 1030.41 1029.71 1029.04 1028.43 1027.89 1027.42 1027.03 1026.70 1026.43 1026.21 1026.00 1025.81 1025.61 1025.40 1025.17 1024.92 1024.64 1024.35 1024.05 1023.74 1023.42 1023.10 1022.78 1022.45 1022.09 1021.70 1021.26 1020.75 1020.16 1019.47
1038.00 1037.61 1037.20 1036.77 1036.31 1035.81 1035.27 1034.67 1034.02 1033.32 1032.59 1031.83 1031.07 1030.32 1029.61 1028.95 1028.36 1027.85 1027.41 1027.05 1026.75 1026.49 1026.27 1026.05 1025.83 1025.59 1025.34 1025.06 1024.76 1024.45 1024.14 1023.83 1023.53 1023.25 1022.99 1022.73 1022.47 1022.19 1021.86 1021.48 1021.02 1020.45 1019.77
1037.61 1037.31 1036.99 1036.62 1036.21 1035.74 1035.21 1034.61 1033.94 1033.22 1032.46 1031.68 1030.89 1030.14 1029.43 1028.79 1028.22 1027.73 1027.33 1026.98 1026.70 1026.44 1026.20 1025.96 1025.70 1025.41 1025.10 1024.76 1024.41 1024.06 1023.72 1023.40 1023.12 1022.86 1022.65 1022.45 1022.25 1022.04 1021.79 1021.47 1021.05 1020.53 1019.89
1037.08 1036.86 1036.60 1036.30 1035.93 1035.49 1034.97 1034.37 1033.70 1032.97 1032.20 1031.41 1030.63 1029.88 1029.19 1028.57 1028.02 1027.56 1027.17 1026.84 1026.55 1026.28 1026.01 1025.73 1025.42 1025.07 1024.69 1024.29 1023.89 1023.49 1023.12 1022.79 1022.50 1022.27 1022.09 1021.94 1021.81 1021.66 1021.47 1021.22 1020.87 1020.41 1019.82
1036.42 1036.26 1036.06 1035.80 1035.46 1035.05 1034.54 1033.95 1033.29 1032.56 1031.80 1031.03 1030.27 1029.55 1028.88 1028.29 1027.77 1027.33 1026.95 1026.62 1026.32 1026.02 1025.72 1025.38 1025.00 1024.59 1024.15 1023.68 1023.22 1022.77 1022.37 1022.02 1021.73 1021.52 1021.36 1021.25 1021.17 1021.08 1020.96 1020.77 1020.50 1020.12 1019.62
1035.68 1035.55 1035.37 1035.14 1034.82 1034.42 1033.93 1033.35 1032.70 1032.00 1031.27 1030.54 1029.82 1029.14 1028.52 1027.96 1027.47 1027.05 1026.67 1026.33 1026.01 1025.67 1025.31 1024.91 1024.47 1023.99 1023.48 1022.95 1022.44 1021.95 1021.51 1021.14 1020.84 1020.63 1020.49 1020.41 1020.37 1020.33 1020.27 1020.17 1019.99 1019.71 1019.32
1034.89 1034.76 1034.58 1034.34 1034.03 1033.63 1033.15 1032.59 1031.98 1031.32 1030.64 1029.95 1029.29 1028.67 1028.10 1027.58 1027.12 1026.71 1026.33 1025.97 1025.60 1025.22 1024.80 1024.34 1023.83 1023.28 1022.71 1022.13 1021.56 1021.03 1020.56 1020.16 1019.86 1019.64 1019.51 1019.45 1019.44 1019.45 1019.46 1019.44 1019.36 1019.20 1018.95
1034.05 1033.90 1033.71 1033.45 1033.12 1032.73 1032.26 1031.73 1031.15 1030.54 1029.92 1029.30 1028.71 1028.15 1027.62 1027.15 1026.71 1026.30 1025.90 1025.51 1025.11 1024.67 1024.19 1023.66 1023.09 1022.48 1021.85 1021.21 1020.60 1020.04 1019.53 1019.12 1018.80 1018.57 1018.44 1018.40 1018.42 1018.47 1018.55 1018.61 1018.63 1018.60 1018.50
Thickness
5409 5410 5411 5412 5412 5412 5411 5411 5411 5411 5410 5409 5408 5407 5406 5405 5404 5403 5403 5401 5399 5398 5396 5396 5396 5396 5395 5394 5393 5393 5392 5392 5392 5394 5393 5393 5394 5395 5396 5398 5399 5402 5404
5395 5397 5398 5399 5398 5398 5398 5398 5398 5398 5398 5397 5396 5395 5394 5393 5392 5392 5391 5389 5388 5387 5386 5385 5385 5384 5383 5381 5380 5379 5379 5379 5378 5380 5380 5379 5379 5380 5381 5382 5384 5386 5388
5380 5382 5384 5385 5385 5385 5385 5385 5385 5385 5385 5385 5384 5384 5383 5382 5381 5380 5380 5378 5377 5376 5375 5374 5373 5372 5371 5369 5368 5367 5366 5366 5366 5367 5368 5366 5365 5365 5365 5367 5369 5370 5372
5366 5368 5369 5370 5371 5371 5371 5371 5371 5372 5372 5372 5372 5372 5371 5370 5370 5369 5368 5368 5367 5366 5365 5364 5363 5362 5361 5359 5357 5357 5355 5354 5353 5353 5354 5353 5352 5352 5351 5352 5354 5356 5358
5351 5353 5355 5356 5357 5358 5357 5357 5358 5358 5359 5359 5359 5359 5359 5358 5359 5358 5357 5357 5356 5355 5354 5353 5353 5352 5352 5350 5349 5347 5345 5343 5342 5342 5342 5341 5340 5339 5339 5339 5340 5342 5344
5337 5339 5341 5343 5344 5344 5345 5345 5345 5345 5346 5346 5347 5347 5347 5348 5348 5348 5348 5347 5346 5346 5345 5343 5342 5342 5342 5341 5341 5339 5337 5334 5333 5332 5332 5331 5331 5329 5328 5327 5327 5328 5330
5322 5324 5326 5328 5329 5330 5332 5332 5332 5333 5333 5334 5335 5336 5336 5337 5337 5338 5338 5337 5336 5335 5335 5334 5333 5333 5332 5331 5330 5328 5327 5326 5325 5324 5323 5322 5321 5320 5318 5317 5315 5315 5317
5309 5310 5312 5314 5315 5316 5318 5319 5320 5320 5321 5322 5323 5324 5325 5326 5326 5327 5327 5326 5325 5324 5324 5324 5323 5323 5322 5320 5319 5317 5316 5315 5314 5313 5313 5313 5312 5310 5308 5307 5305 5304 5304
5296 5297 5298 5300 5301 5303 5304 5306 5307 5308 5309 5310 5311 5312 5313 5314 5315 5315 5315 5314 5314 5313 5313 5313 5313 5313 5313 5312 5309 5307 5307 5305 5304 5304 5303 5303 5302 5301 5299 5296 5294 5292 5293
5282 5284 5285 5287 5288 5290 5291 5293 5295 5296 5298 5298 5299 5300 5301 5302 5303 5305 5305 5304 5303 5303 5303 5303 5304 5304 5303 5302 5300 5298 5296 5296 5294 5293 5292 5292 5291 5290 5289 5288 5286 5283 5282
5269 5271 5273 5274 5276 5277 5279 5281 5282 5284 5286 5286 5287 5288 5289 5291 5292 5294 5294 5294 5293 5293 5293 5293 5293 5294 5293 5292 5291 5289 5288 5287 5284 5283 5282 5281 5280 5279 5278 5277 5276 5274 5272
5257 5259 5261 5263 5264 5267 5268 5269 5271 5272 5273 5274 5275 5277 5278 5279 5281 5283 5284 5285 5285 5284 5284 5283 5283 5283 5282 5282 5281 5280 5279 5277 5274 5272 5271 5271 5270 5269 5268 5267 5266 5265 5263
5245 5247 5249 5252 5253 5255 5257 5259 5260 5261 5262 5264 5265 5267 5268 5269 5270 5272 5274 5275 5275 5275 5274 5274 5273 5273 5272 5271 5270 5269 5268 5265 5264 5263 5262 5262 5261 5260 5258 5257 5255 5254 5254
5233 5235 5238 5240 5243 5245 5247 5249 5250 5251 5252 5254 5255 5256 5257 5259 5260 5261 5263 5264 5265 5264 5263 5263 5263 5262 5261 5260 5259 5257 5256 5255 5254 5253 5253 5251 5250 5249 5248 5247 5245 5244 5244
5222 5225 5228 5230 5232 5234 5237 5238 5241 5243 5243 5244 5246 5246 5247 5249 5251 5252 5253 5255 5255 5254 5253 5251 5251 5250 5249 5248 5247 5246 5245 5244 5244 5243 5242 5241 5240 5239 5238 5236 5235 5234 5233
5212 5215 5217 5219 5222 5224 5225 5228 5230 5232 5234 5236 5237 5238 5239 5241 5241 5242 5244 5245 5245 5245 5242 5241 5240 5239 5238 5237 5236 5235 5235 5234 5234 5233 5232 5230 5230 5229 5227 5226 5225 5224 5223
5201 5204 5206 5209 5211 5212 5214 5216 5219 5222 5223 5225 5227 5229 5230 5232 5232 5233 5234 5235 5235 5234 5232 5231 5230 5229 5228 5228 5227 5226 5225 5224 5224 5223 5222 5221 5220 5219 5217 5217 5216 5215 5214
5192 5194 5196 5198 5199 5201 5203 5205 5207 5209 5211 5213 5216 5218 5220 5222 5223 5224 5224 5224 5223 5223 5222 5222 5221 5220 5219 5218 5217 5216 5215 5214 5214 5214 5213 5212 5211 5209 5208 5207 5206 5205 5204
5183 5185 5186 5188 5189 5191 5192 5194 5196 5198 5200 5202 5204 5207 5209 5211 5213 5214 5214 5213 5213 5212 5212 5212 5211 5211 5210 5209 5208 5207 5206 5205 5205 5205 5204 5203 5202 5200 5199 5198 5197 5197 5196
5173 5175 5177 5178 5179 5181 5182 5184 5186 5187 5189 5191 5194 5196 5198 5200 5201 5202 5203 5203 5203 5203 5202 5202 5202 5202 5201 5200 5199 5198 5198 5197 5197 5196 5196 5195 5194 5192 5191 5190 5189 5188 5188
5163 5165 5167 5168 5169 5170 5172 5174 5175 5177 5179 5182 5185 5187 5190 5190 5191 5191 5192 5192 5193 5193 5193 5193 5193 5193 5192 5192 5191 5191 5190 5190 5189 5188 5188 5187 5185 5184 5183 5182 5181 5181 5180
5153 5155 5156 5157 5159 5160 5162 5164 5166 5168 5171 5173 5176 5178 5181 5181 5181 5181 5182 5183 5183 5184 5185 5185 5185 5185 5185 5185 5184 5184 5183 5183 5182 5181 5180 5179 5178 5177 5176 5175 5174 5174 5173
5143 5144 5146 5147 5149 5152 5153 5155 5156 5159 5161 5163 5166 5168 5169 5170 5171 5171 5172 5174 5175 5175 5176 5177 5177 5177 5178 5178 5178 5177 5177 5177 5176 5175 5174 5172 5171 5170 5169 5168 5168 5167 5166
5134 5135 5136 5137 5139 5141 5142 5144 5146 5148 5151 5153 5155 5157 5158 5159 5160 5161 5162 5164 5165 5167 5168 5168 5169 5170 5171 5171 5171 5171 5171 5171 5170 5170 5169 5167 5166 5165 5164 5163 5162 5161 5160
5124 5125 5126 5127 5129 5131 5132 5134 5136 5138 5140 5142 5144 5146 5147 5148 5150 5151 5153 5154 5156 5158 5159 5160 5161 5163 5163 5164 5164 5164 5165 5165 5165 5165 5164 5163 5161 5160 5159 5157 5156 5155 5154
5115 5116 5116 5118 5119 5120 5122 5124 5126 5128 5129 5132 5133 5135 5136 5138 5139 5141 5143 5145 5147 5149 5150 5152 5153 5154 5155 5156 5157 5158 5159 5159 5160 5160 5159 5158 5156 5155 5154 5153 5151 5150 5149